This is the latest recevied weather packets stored in our database for station/object KI4SSU. If no packets are shown the sender has not sent any weather packets the latest 1 day(s).
| Time | Temp. | Humidity | Pressure | Rain* | Wind** | Luminosity | Snow |
|---|---|---|---|---|---|---|---|
| 1777998381 | 28.33° C | - | - | 0 mm | 2.68 m/s, 232° | - | - |
| 1777998081 | 28.33° C | - | - | 0 mm | 2.68 m/s, 245° | - | - |
| 1777997781 | 28.33° C | - | - | 0 mm | 2.24 m/s, 235° | - | - |
| 1777997181 | 26.67° C | - | - | 0 mm | 3.58 m/s, 177° | - | - |
| 1777996881 | 27.22° C | - | - | 0 mm | 2.68 m/s, 217° | - | - |
| 1777996582 | 27.22° C | - | - | 0 mm | 1.79 m/s, 303° | - | - |
| 1777996281 | 26.67° C | - | - | 0 mm | 2.68 m/s, 232° | - | - |
| 1777995981 | 26.67° C | - | - | 0 mm | 3.58 m/s, 206° | - | - |
| 1777995681 | 26.67° C | - | - | 0 mm | 3.13 m/s, 234° | - | - |
| 1777995382 | 26.67° C | - | - | 0 mm | 3.13 m/s, 232° | - | - |
| 1777995082 | 26.11° C | - | - | 0 mm | 1.79 m/s, 237° | - | - |
| 1777994781 | 26.11° C | - | - | 0 mm | 3.13 m/s, 222° | - | - |
| 1777994482 | 25.56° C | - | - | 0 mm | 2.68 m/s, 232° | - | - |
| 1777994181 | 25.56° C | - | - | 0 mm | 2.24 m/s, 255° | - | - |
| 1777993881 | 25° C | - | - | 0 mm | 3.58 m/s, 297° | - | - |
| 1777993581 | 25° C | - | - | 0 mm | 2.68 m/s, 232° | - | - |
| 1777993281 | 25° C | - | - | 0 mm | 2.68 m/s, 235° | - | - |
| 1777992982 | 25° C | - | - | 0 mm | 3.13 m/s, 207° | - | - |
| 1777992681 | 25° C | - | - | 0 mm | 2.68 m/s, 211° | - | - |
| 1777992382 | 24.44° C | - | - | 0 mm | 2.68 m/s, 208° | - | - |
| 1777992081 | 24.44° C | - | - | 0 mm | 2.24 m/s, 193° | - | - |
| 1777991781 | 23.89° C | - | - | 0 mm | 2.68 m/s, 227° | - | - |
| 1777991481 | 23.89° C | - | - | 0 mm | 2.24 m/s, 117° | - | - |
| 1777991181 | 23.89° C | - | - | 0 mm | 3.58 m/s, 229° | - | - |
| 1777990881 | 23.89° C | - | - | 0 mm | 3.13 m/s, 245° | - | - |
* Rain since midnight (hover to see other rain measurements)
** Current wind speed in m/s (hover to see current wind gust speed)